Weather in Bagrationovsk

Russia / Kaliningrad Oblast     54°23′11″N   20°38′22″E
temp.,
°C
wind,
m/s
gust,
m/s
humid.,
%
clouds,
%
prec.,
mm/h
press.,
hPa
HPBL,
m
27 october, wed
wed2723:00+9wsw6129059 0.5 1018647
02:00+8wsw511948 0.5 1018388
05:00+6wsw410955 0.0 1018264
08:00+7sw4119459 0.0 1019242
11:00+11sw61281100 0.0 1018576
14:00+11sw61381100 0.0 1018652
17:00+12wsw71483100 0.0 1017706
20:00+12wsw71585100 0.0 1018867
28 october, thu
thu2823:00+12wsw71484100 0.0 1018978
02:00+12wsw61484100 0.0 1018857
05:00+13w61383100 0.0 1019808
08:00+12w5128393 0.0 1021633
11:00+15w5973100 0.0 1022693
14:00+15w4568100 0.0 1022739
17:00+12sw228786 0.0 102325
20:00+10ssw34905 0.0 102353
29 october, fri
fri2923:00+10s359251 0.0 102389
02:00+9s37935 0.0 1023136
05:00+9sse411924 0.0 1022211
08:00+8sse513905 0.0 1022288
11:00+13sse614685 0.0 1021520
14:00+16sse6135775 0.0 1019672
17:00+13sse5136661 0.0 1018423
20:00+12sse5157392 0.0 1018493
30 october, sat
sat3023:00+11sse5157680 0.0 1017455
02:00+10sse5138159 0.0 1016360
05:00+9sse5138210 0.0 1014334
08:00+8sse6167614 0.0 1015446
11:00+12s6135212 0.0 1015631
14:00+14ssw5104884 0.0 1015692
17:00+12ssw4105692 0.0 1016304
20:00+11ssw41161100 0.0 1017275
31 october, sun
sun3123:00+9ssw377360 0.0 1018140
02:00+8ssw358027 0.0 101879
05:00+7sse368183 0.0 101692
08:00+7sse3981100 0.0 1015173
11:00+11s51264100 0.0 1013386
14:00+14se41255100 0.0 1010512
17:00+12sse51258100 0.0 1008471
20:00+11sse6146687 0.0 1006374